Time,TemperatureF,DewpointF,PressureIn,WindDirection,WindDirectionDegrees,WindSpeedMPH,WindSpeedGustMPH,Humidity,HourlyPrecipIn,Conditions,Clouds,dailyrainin,SoftwareType,DateUTC
2013-04-10 00:00:00,54.0,43.6,29.95,WNW,300,3.0,3.0,68,0.00,OVC,OVC,0.00,WeatherDisplay:10.37,2013-04-10 04:00:00,
2013-04-10 00:01:00,54.0,47.6,29.95,WNW,300,0.0,3.5,79,0.00,-RA,,0.00,WeatherDisplay:10.37,2013-04-10 04:01:00,
2013-04-10 00:02:00,53.8,47.4,29.95,WNW,300,0.0,3.5,79,0.00,-RA,,0.00,WeatherDisplay:10.37,2013-04-10 04:02:00,
2013-04-10 00:07:00,53.8,47.4,29.95,WNW,300,0.0,0.0,79,0.00,-RA,,0.00,WeatherDisplay:10.37,2013-04-10 04:07:00,
2013-04-10 00:12:00,53.8,47.4,29.95,WNW,300,0.0,0.0,79,0.00,-RA,,0.00,WeatherDisplay:10.37,2013-04-10 04:12:00,
2013-04-10 00:17:00,53.6,47.2,29.95,WNW,300,0.0,0.0,79,0.00,-RA,,0.00,WeatherDisplay:10.37,2013-04-10 04:17:00,
2013-04-10 00:22:00,53.6,47.2,29.95,WNW,300,0.0,0.0,79,0.00,-RA,,0.00,WeatherDisplay:10.37,2013-04-10 04:22:00,
2013-04-10 00:27:00,53.4,47.1,29.95,WNW,300,0.0,0.0,79,0.00,-RA,,0.00,WeatherDisplay:10.37,2013-04-10 04:27:00,
2013-04-10 00:32:00,53.1,46.7,29.95,WNW,300,0.0,0.0,79,0.00,-RA,,0.00,WeatherDisplay:10.37,2013-04-10 04:32:00,
2013-04-10 00:37:00,53.1,46.7,29.95,WNW,300,0.0,0.0,79,0.00,-RA,,0.00,WeatherDisplay:10.37,2013-04-10 04:37:00,
2013-04-10 00:42:00,52.9,46.5,29.92,WNW,300,0.0,0.0,79,0.00,-RA,,0.00,WeatherDisplay:10.37,2013-04-10 04:42:00,
2013-04-10 00:47:00,52.9,46.5,29.89,WNW,300,0.0,0.0,79,0.00,-RA,,0.00,WeatherDisplay:10.37,2013-04-10 04:47:00,
2013-04-10 00:52:00,52.9,46.5,29.89,WNW,300,0.0,0.0,79,0.00,-RA,,0.00,WeatherDisplay:10.37,2013-04-10 04:52:00,
2013-04-10 00:57:00,52.7,46.4,29.89,WNW,300,0.0,0.0,79,0.00,-RA,,0.00,WeatherDisplay:10.37,2013-04-10 04:57:00,
2013-04-10 01:02:00,52.7,46.4,29.89,WNW,300,0.0,0.0,79,0.00,-RA,,0.00,WeatherDisplay:10.37,2013-04-10 05:02:00,
2013-04-10 01:07:00,52.7,46.4,29.89,WNW,300,0.0,0.0,79,0.00,-RA,,0.00,WeatherDisplay:10.37,2013-04-10 05:07:00,
2013-04-10 01:13:00,52.5,46.2,29.89,WNW,300,0.0,0.0,79,0.00,-RA,,0.00,WeatherDisplay:10.37,2013-04-10 05:13:00,
2013-04-10 01:18:00,52.2,45.8,29.89,North,0,0.0,0.0,79,0.00,-RA,,0.00,WeatherDisplay:10.37,2013-04-10 05:18:00,
2013-04-10 01:23:00,52.0,45.7,29.89,North,0,0.0,0.0,79,0.00,-RA,,0.00,WeatherDisplay:10.37,2013-04-10 05:23:00,
2013-04-10 01:28:00,51.4,45.1,29.89,North,0,0.0,0.0,79,0.00,-RA,,0.00,WeatherDisplay:10.37,2013-04-10 05:28:00,
2013-04-10 01:33:00,51.1,44.8,29.95,NNW,340,5.8,5.8,79,0.00,OVC,,0.00,WeatherDisplay:10.37,2013-04-10 05:33:00,
2013-04-10 01:38:00,51.1,44.8,29.95,NNW,340,5.8,5.8,79,0.00,OVC,,0.00,WeatherDisplay:10.37,2013-04-10 05:38:00,
2013-04-10 01:43:00,50.5,44.3,29.95,NNW,340,5.8,5.8,79,0.00,OVC,,0.00,WeatherDisplay:10.37,2013-04-10 05:43:00,
2013-04-10 01:48:00,50.2,48.2,29.95,NW,320,4.6,4.6,93,0.00,OVC,,0.00,WeatherDisplay:10.37,2013-04-10 05:48:00,
2013-04-10 01:53:00,50.0,48.1,29.95,NW,320,4.6,4.6,93,0.00,OVC,,0.00,WeatherDisplay:10.37,2013-04-10 05:53:00,
2013-04-10 01:58:00,50.0,48.1,29.95,NW,320,4.6,4.6,93,0.00,OVC,,0.00,WeatherDisplay:10.37,2013-04-10 05:58:00,
2013-04-10 02:03:00,49.6,48.5,29.95,NW,320,0.0,0.0,96,0.00,OVC,,0.00,WeatherDisplay:10.37,2013-04-10 06:03:00,
2013-04-10 02:08:00,49.5,48.4,29.95,NW,320,0.0,0.0,96,0.00,OVC,,0.00,WeatherDisplay:10.37,2013-04-10 06:08:00,
2013-04-10 02:13:00,49.3,48.2,29.95,NW,320,0.0,0.0,96,0.00,OVC,,0.00,WeatherDisplay:10.37,2013-04-10 06:13:00,
2013-04-10 02:18:00,49.3,49.3,29.95,ESE,120,4.6,4.6,100,0.00,OVC,,0.00,WeatherDisplay:10.37,2013-04-10 06:18:00,
2013-04-10 02:23:00,49.1,49.1,29.95,ESE,120,4.6,4.6,100,0.00,OVC,,0.00,WeatherDisplay:10.37,2013-04-10 06:23:00,
2013-04-10 02:28:00,49.1,49.1,29.95,ESE,120,4.6,4.6,100,0.00,OVC,,0.00,WeatherDisplay:10.37,2013-04-10 06:28:00,
2013-04-10 02:33:00,48.9,48.9,29.98,ESE,120,4.6,4.6,100,0.04,RA,,0.04,WeatherDisplay:10.37,2013-04-10 06:33:00,
2013-04-10 02:38:00,48.7,48.7,29.98,ESE,120,4.6,4.6,100,0.12,RA,,0.12,WeatherDisplay:10.37,2013-04-10 06:38:00,
2013-04-10 02:43:00,48.9,48.9,29.98,ESE,120,4.6,4.6,100,0.12,RA,,0.12,WeatherDisplay:10.37,2013-04-10 06:43:00,
2013-04-10 02:48:00,48.9,48.9,29.98,North,350,4.6,4.6,100,0.16,-RA,,0.16,WeatherDisplay:10.37,2013-04-10 06:48:00,
2013-04-10 02:53:00,48.7,48.7,29.92,North,350,4.6,4.6,100,0.16,-RA,,0.16,WeatherDisplay:10.37,2013-04-10 06:53:00,
2013-04-10 02:58:00,48.9,48.9,29.92,North,350,4.6,4.6,100,0.16,-RA,,0.16,WeatherDisplay:10.37,2013-04-10 06:58:00,
2013-04-10 03:03:00,49.1,48.0,29.95,North,350,0.0,0.0,96,0.16,OVC,,0.16,WeatherDisplay:10.37,2013-04-10 07:03:00,
2013-04-10 03:08:00,32.0,31.0,29.95,North,350,0.0,0.0,96,0.24,RA,,0.24,WeatherDisplay:10.37,2013-04-10 07:08:00,
2013-04-10 03:13:00,32.0,31.0,29.95,North,350,0.0,0.0,96,0.24,RA,,0.24,WeatherDisplay:10.37,2013-04-10 07:13:00,
2013-04-10 03:18:00,48.9,47.8,29.95,North,350,0.0,0.0,96,0.28,RA,,0.28,WeatherDisplay:10.37,2013-04-10 07:18:00,
2013-04-10 03:23:00,48.9,47.8,29.95,North,350,0.0,0.0,96,0.28,RA,,0.28,WeatherDisplay:10.37,2013-04-10 07:23:00,
2013-04-10 03:28:00,49.1,48.0,29.92,North,350,0.0,0.0,96,0.28,OVC,,0.28,WeatherDisplay:10.37,2013-04-10 07:28:00,
2013-04-10 03:33:00,49.1,48.0,29.92,North,350,0.0,0.0,96,0.24,OVC,,0.28,WeatherDisplay:10.37,2013-04-10 07:33:00,
2013-04-10 03:38:00,49.1,48.0,29.92,North,350,0.0,0.0,96,0.16,OVC,,0.28,WeatherDisplay:10.37,2013-04-10 07:38:00,
2013-04-10 03:43:00,48.9,47.8,29.92,North,350,0.0,0.0,96,0.16,OVC,,0.28,WeatherDisplay:10.37,2013-04-10 07:43:00,
2013-04-10 03:48:00,48.9,47.8,29.92,North,350,0.0,0.0,96,0.12,OVC,,0.28,WeatherDisplay:10.37,2013-04-10 07:48:00,
2013-04-10 03:53:00,48.9,47.8,29.92,North,350,0.0,0.0,96,0.12,OVC,,0.28,WeatherDisplay:10.37,2013-04-10 07:53:00,
2013-04-10 03:58:00,49.1,48.0,29.92,North,350,0.0,0.0,96,0.12,OVC,,0.28,WeatherDisplay:10.37,2013-04-10 07:58:00,
2013-04-10 04:03:00,49.1,48.0,29.92,North,350,4.6,4.6,96,0.12,OVC,,0.28,WeatherDisplay:10.37,2013-04-10 08:03:00,
2013-04-10 04:08:00,49.1,48.0,29.92,North,350,4.6,4.6,96,0.04,OVC,,0.28,WeatherDisplay:10.37,2013-04-10 08:08:00,
2013-04-10 04:13:00,49.1,48.0,29.92,North,350,4.6,4.6,96,0.04,OVC,,0.28,WeatherDisplay:10.37,2013-04-10 08:13:00,
2013-04-10 04:18:00,48.9,47.8,29.89,North,350,4.6,4.6,96,0.00,OVC,,0.28,WeatherDisplay:10.37,2013-04-10 08:18:00,
2013-04-10 04:23:00,48.9,47.8,29.89,North,350,4.6,4.6,96,0.00,OVC,,0.28,WeatherDisplay:10.37,2013-04-10 08:23:00,
2013-04-10 04:28:00,48.7,47.7,29.89,North,350,4.6,4.6,96,0.00,OVC,,0.28,WeatherDisplay:10.37,2013-04-10 08:28:00,
2013-04-10 04:33:00,48.7,47.7,29.89,North,350,4.6,4.6,96,0.00,OVC,,0.28,WeatherDisplay:10.37,2013-04-10 08:33:00,
2013-04-10 04:38:00,48.9,47.8,29.89,North,350,4.6,4.6,96,0.00,OVC,,0.28,WeatherDisplay:10.37,2013-04-10 08:38:00,
2013-04-10 04:43:00,48.7,47.7,29.89,North,350,4.6,4.6,96,0.00,OVC,,0.28,WeatherDisplay:10.37,2013-04-10 08:43:00,
2013-04-10 04:48:00,48.6,47.5,29.89,North,350,4.6,4.6,96,0.00,OVC,,0.28,WeatherDisplay:10.37,2013-04-10 08:48:00,
2013-04-10 04:53:00,48.6,47.5,29.89,North,350,4.6,4.6,96,0.00,OVC,,0.28,WeatherDisplay:10.37,2013-04-10 08:53:00,
2013-04-10 04:58:00,48.6,47.5,29.89,North,350,4.6,4.6,96,0.00,OVC,,0.28,WeatherDisplay:10.37,2013-04-10 08:58:00,
2013-04-10 05:03:00,48.6,46.3,29.89,North,10,6.9,6.9,92,0.00,OVC,,0.28,WeatherDisplay:10.37,2013-04-10 09:03:00,
2013-04-10 05:08:00,48.6,46.3,29.89,North,10,6.9,6.9,92,0.00,OVC,,0.28,WeatherDisplay:10.37,2013-04-10 09:08:00,
2013-04-10 05:13:00,48.6,46.3,29.89,North,10,6.9,6.9,92,0.00,OVC,,0.28,WeatherDisplay:10.37,2013-04-10 09:13:00,
2013-04-10 05:18:00,48.7,46.5,29.89,North,10,6.9,6.9,92,0.00,OVC,,0.28,WeatherDisplay:10.37,2013-04-10 09:18:00,
2013-04-10 05:23:00,48.7,46.5,29.89,North,10,6.9,6.9,92,0.00,OVC,,0.28,WeatherDisplay:10.37,2013-04-10 09:23:00,
2013-04-10 05:29:00,48.7,46.5,29.89,North,10,6.9,6.9,92,0.00,OVC,,0.28,WeatherDisplay:10.37,2013-04-10 09:29:00,
2013-04-10 05:34:00,-2.6,-4.3,29.89,North,10,6.9,6.9,92,0.00,OVC,,0.28,WeatherDisplay:10.37,2013-04-10 09:34:00,
2013-04-10 05:39:00,-2.6,-4.3,29.89,North,10,6.9,6.9,92,0.00,OVC,,0.28,WeatherDisplay:10.37,2013-04-10 09:39:00,
2013-04-10 05:44:00,-2.6,-4.3,29.89,North,10,6.9,6.9,92,0.00,OVC,,0.28,WeatherDisplay:10.37,2013-04-10 09:44:00,
2013-04-10 05:49:00,48.6,46.3,29.89,North,10,6.9,6.9,92,0.00,OVC,,0.28,WeatherDisplay:10.37,2013-04-10 09:49:00,
2013-04-10 05:54:00,48.6,46.3,29.89,North,10,6.9,6.9,92,0.00,OVC,,0.28,WeatherDisplay:10.37,2013-04-10 09:54:00,
2013-04-10 05:59:00,48.6,46.3,29.89,North,10,6.9,6.9,92,0.00,OVC,,0.28,WeatherDisplay:10.37,2013-04-10 09:59:00,
2013-04-10 06:04:00,48.4,46.2,29.89,North,10,6.9,6.9,92,0.00,OVC,,0.28,WeatherDisplay:10.37,2013-04-10 10:04:00,
2013-04-10 06:09:00,48.4,46.2,29.89,North,10,6.9,6.9,92,0.00,OVC,,0.28,WeatherDisplay:10.37,2013-04-10 10:09:00,
2013-04-10 06:14:00,48.4,46.2,29.92,North,10,6.9,6.9,92,0.00,OVC,,0.28,WeatherDisplay:10.37,2013-04-10 10:14:00,
2013-04-10 06:19:00,48.4,46.4,29.92,North,10,0.0,0.0,93,0.00,OVC,,0.28,WeatherDisplay:10.37,2013-04-10 10:19:00,
2013-04-10 06:24:00,48.2,46.3,29.92,North,10,0.0,0.0,93,0.00,OVC,,0.28,WeatherDisplay:10.37,2013-04-10 10:24:00,
2013-04-10 06:29:00,32.0,30.2,29.92,North,10,0.0,0.0,93,0.00,OVC,,0.28,WeatherDisplay:10.37,2013-04-10 10:29:00,
2013-04-10 06:34:00,48.2,46.3,29.92,North,10,0.0,0.0,93,0.00,OVC,,0.28,WeatherDisplay:10.37,2013-04-10 10:34:00,
2013-04-10 06:39:00,48.2,46.3,29.92,North,10,0.0,0.0,93,0.00,OVC,,0.28,WeatherDisplay:10.37,2013-04-10 10:39:00,
2013-04-10 06:44:00,48.2,46.3,29.92,North,10,0.0,0.0,93,0.00,OVC,,0.28,WeatherDisplay:10.37,2013-04-10 10:44:00,
2013-04-10 06:49:00,48.2,46.3,29.92,North,10,0.0,0.0,93,0.00,OVC,,0.28,WeatherDisplay:10.37,2013-04-10 10:49:00,
2013-04-10 06:54:00,48.2,46.3,29.92,North,10,0.0,0.0,93,0.00,OVC,,0.28,WeatherDisplay:10.37,2013-04-10 10:54:00,
2013-04-10 06:59:00,48.2,46.3,29.92,North,10,0.0,0.0,93,0.00,OVC,,0.28,WeatherDisplay:10.37,2013-04-10 10:59:00,
2013-04-10 07:04:00,32.0,30.7,29.92,SW,230,3.5,3.5,95,0.00,OVC,,0.28,WeatherDisplay:10.37,2013-04-10 11:04:00,
2013-04-10 07:09:00,48.2,46.8,29.92,SW,230,3.5,3.5,95,0.00,OVC,,0.28,WeatherDisplay:10.37,2013-04-10 11:09:00,
2013-04-10 07:14:00,48.2,46.8,29.92,SW,230,3.5,3.5,95,0.00,OVC,,0.28,WeatherDisplay:10.37,2013-04-10 11:14:00,
2013-04-10 07:19:00,48.4,47.0,29.92,SW,230,3.5,3.5,95,0.00,OVC,,0.28,WeatherDisplay:10.37,2013-04-10 11:19:00,
2013-04-10 07:24:00,48.2,46.8,29.92,SW,230,3.5,3.5,95,0.00,OVC,,0.28,WeatherDisplay:10.37,2013-04-10 11:24:00,
2013-04-10 07:29:00,48.2,46.8,29.92,SW,230,3.5,3.5,95,0.00,OVC,,0.28,WeatherDisplay:10.37,2013-04-10 11:29:00,
2013-04-10 07:34:00,48.2,46.8,29.92,SW,230,3.5,3.5,95,0.00,OVC,,0.28,WeatherDisplay:10.37,2013-04-10 11:34:00,
2013-04-10 07:39:00,-6.2,-7.2,29.92,SW,230,3.5,3.5,95,0.00,OVC,,0.28,WeatherDisplay:10.37,2013-04-10 11:39:00,
2013-04-10 07:44:00,-6.2,-7.2,29.92,SW,230,3.5,3.5,95,0.00,OVC,,0.28,WeatherDisplay:10.37,2013-04-10 11:44:00,
2013-04-10 07:49:00,48.4,46.4,29.92,NNW,340,5.8,5.8,93,0.00,OVC,,0.28,WeatherDisplay:10.37,2013-04-10 11:49:00,
2013-04-10 07:54:00,48.4,46.4,29.92,NNW,340,5.8,5.8,93,0.00,OVC,,0.28,WeatherDisplay:10.37,2013-04-10 11:54:00,
2013-04-10 07:59:00,48.4,46.4,29.92,NNW,340,5.8,5.8,93,0.00,OVC,,0.28,WeatherDisplay:10.37,2013-04-10 11:59:00,
2013-04-10 08:04:00,48.4,47.3,29.92,North,0,5.8,5.8,96,0.00,BKN,,0.28,WeatherDisplay:10.37,2013-04-10 12:04:00,
2013-04-10 08:09:00,48.4,47.3,29.92,North,0,5.8,5.8,96,0.00,BKN,,0.28,WeatherDisplay:10.37,2013-04-10 12:09:00,
2013-04-10 08:14:00,48.4,47.3,29.92,North,0,5.8,5.8,96,0.00,BKN,,0.28,WeatherDisplay:10.37,2013-04-10 12:14:00,
2013-04-10 08:19:00,48.4,47.3,29.92,North,0,5.8,5.8,96,0.00,BKN,,0.28,WeatherDisplay:10.37,2013-04-10 12:19:00,
2013-04-10 08:24:00,48.2,47.1,29.92,North,0,5.8,5.8,96,0.00,BKN,,0.28,WeatherDisplay:10.37,2013-04-10 12:24:00,
2013-04-10 08:29:00,48.4,47.3,29.92,North,0,5.8,5.8,96,0.00,BKN,,0.28,WeatherDisplay:10.37,2013-04-10 12:29:00,
2013-04-10 08:34:00,48.4,47.3,29.92,North,0,5.8,5.8,96,0.00,BKN,,0.28,WeatherDisplay:10.37,2013-04-10 12:34:00,
2013-04-10 08:39:00,48.4,47.3,29.95,North,0,5.8,5.8,96,0.00,BKN,,0.28,WeatherDisplay:10.37,2013-04-10 12:39:00,
2013-04-10 08:44:00,48.6,47.5,29.95,North,0,5.8,5.8,96,0.00,BKN,,0.28,WeatherDisplay:10.37,2013-04-10 12:44:00,
2013-04-10 08:49:00,48.7,46.8,29.95,NNE,20,4.6,4.6,93,0.00,OVC,,0.28,WeatherDisplay:10.37,2013-04-10 12:49:00,
2013-04-10 08:54:00,48.9,47.0,29.95,NNE,20,4.6,4.6,93,0.00,OVC,,0.28,WeatherDisplay:10.37,2013-04-10 12:54:00,
2013-04-10 08:59:00,48.9,47.0,29.95,NNE,20,4.6,4.6,93,0.00,OVC,,0.28,WeatherDisplay:10.37,2013-04-10 12:59:00,
2013-04-10 09:04:00,48.9,45.8,29.95,NNE,20,5.8,5.8,89,0.00,OVC,,0.28,WeatherDisplay:10.37,2013-04-10 13:04:00,
2013-04-10 09:09:00,49.1,46.0,29.95,NNE,20,5.8,5.8,89,0.00,OVC,,0.28,WeatherDisplay:10.37,2013-04-10 13:09:00,
2013-04-10 09:14:00,32.0,29.1,29.95,NNE,20,5.8,5.8,89,0.00,OVC,,0.28,WeatherDisplay:10.37,2013-04-10 13:14:00,
2013-04-10 09:19:00,32.0,30.2,29.95,NE,40,4.6,4.6,93,0.00,-DZ,,0.28,WeatherDisplay:10.37,2013-04-10 13:19:00,
2013-04-10 09:24:00,49.3,47.3,29.95,NE,40,4.6,4.6,93,0.00,-DZ,,0.28,WeatherDisplay:10.37,2013-04-10 13:24:00,
2013-04-10 09:29:00,32.0,30.2,29.95,NE,40,4.6,4.6,93,0.00,-DZ,,0.28,WeatherDisplay:10.37,2013-04-10 13:29:00,
2013-04-10 09:34:00,49.3,47.3,29.95,NE,40,4.6,4.6,93,0.00,-DZ,,0.28,WeatherDisplay:10.37,2013-04-10 13:34:00,
2013-04-10 09:39:00,49.5,47.5,29.95,NE,40,4.6,4.6,93,0.00,-DZ,,0.28,WeatherDisplay:10.37,2013-04-10 13:39:00,
2013-04-10 09:44:00,32.0,30.2,29.95,NE,40,4.6,4.6,93,0.00,-DZ,,0.28,WeatherDisplay:10.37,2013-04-10 13:44:00,
2013-04-10 09:49:00,49.5,47.5,29.95,NE,40,4.6,4.6,93,0.00,-DZ,,0.28,WeatherDisplay:10.37,2013-04-10 13:49:00,
2013-04-10 09:54:00,49.6,47.7,29.95,NE,40,4.6,4.6,93,0.00,-DZ,,0.28,WeatherDisplay:10.37,2013-04-10 13:54:00,
2013-04-10 09:59:00,32.0,30.2,29.95,NE,40,4.6,4.6,93,0.00,-DZ,,0.28,WeatherDisplay:10.37,2013-04-10 13:59:00,
2013-04-10 10:04:00,32.0,30.2,29.95,NE,40,4.6,4.6,93,0.00,-DZ,,0.28,WeatherDisplay:10.37,2013-04-10 14:04:00,
2013-04-10 10:09:00,32.0,30.2,29.95,NE,40,4.6,4.6,93,0.00,-DZ,,0.28,WeatherDisplay:10.37,2013-04-10 14:09:00,
2013-04-10 10:14:00,32.0,30.2,29.95,NE,40,4.6,4.6,93,0.00,-DZ,,0.28,WeatherDisplay:10.37,2013-04-10 14:14:00,
2013-04-10 10:19:00,32.0,28.3,29.95,NE,40,0.0,0.0,86,0.00,BKN,,0.28,WeatherDisplay:10.37,2013-04-10 14:19:00,
2013-04-10 10:24:00,50.0,46.0,29.95,NE,40,0.0,0.0,86,0.00,BKN,,0.28,WeatherDisplay:10.37,2013-04-10 14:24:00,
2013-04-10 10:29:00,32.0,28.3,29.95,NE,40,0.0,0.0,86,0.00,BKN,,0.28,WeatherDisplay:10.37,2013-04-10 14:29:00,
2013-04-10 10:34:00,32.0,28.3,29.95,NE,40,0.0,0.0,86,0.00,BKN,,0.28,WeatherDisplay:10.37,2013-04-10 14:34:00,
2013-04-10 10:39:00,50.2,46.2,29.95,NE,40,0.0,0.0,86,0.00,BKN,,0.28,WeatherDisplay:10.37,2013-04-10 14:39:00,
2013-04-10 10:44:00,50.2,46.2,29.95,NE,40,0.0,0.0,86,0.00,BKN,,0.28,WeatherDisplay:10.37,2013-04-10 14:44:00,
2013-04-10 10:49:00,50.4,46.3,29.95,NE,40,0.0,0.0,86,0.00,BKN,,0.28,WeatherDisplay:10.37,2013-04-10 14:49:00,
2013-04-10 10:54:00,50.4,46.3,29.95,NE,40,0.0,0.0,86,0.00,BKN,,0.28,WeatherDisplay:10.37,2013-04-10 14:54:00,
2013-04-10 10:59:00,50.4,46.3,29.95,NE,40,0.0,0.0,86,0.00,BKN,,0.28,WeatherDisplay:10.37,2013-04-10 14:59:00,
2013-04-10 11:04:00,50.4,46.3,29.98,NE,40,0.0,0.0,86,0.00,BKN,,0.28,WeatherDisplay:10.37,2013-04-10 15:04:00,
2013-04-10 11:09:00,50.4,46.3,29.98,NE,40,0.0,0.0,86,0.00,BKN,,0.28,WeatherDisplay:10.37,2013-04-10 15:09:00,
2013-04-10 11:14:00,50.7,46.7,29.98,NE,40,0.0,0.0,86,0.00,BKN,,0.28,WeatherDisplay:10.37,2013-04-10 15:14:00,
2013-04-10 11:19:00,50.7,46.4,29.98,NE,40,0.0,0.0,85,0.00,OVC,,0.28,WeatherDisplay:10.37,2013-04-10 15:19:00,
2013-04-10 11:24:00,32.0,28.0,29.98,NE,40,0.0,0.0,85,0.00,OVC,,0.28,WeatherDisplay:10.37,2013-04-10 15:24:00,
2013-04-10 11:29:00,50.9,46.6,29.98,NE,40,0.0,0.0,85,0.00,OVC,,0.28,WeatherDisplay:10.37,2013-04-10 15:29:00,
2013-04-10 11:34:00,50.9,46.6,29.98,NE,40,0.0,0.0,85,0.00,OVC,,0.28,WeatherDisplay:10.37,2013-04-10 15:34:00,
2013-04-10 11:39:00,51.1,46.7,29.98,NE,40,0.0,0.0,85,0.00,OVC,,0.28,WeatherDisplay:10.37,2013-04-10 15:39:00,
2013-04-10 11:44:00,51.1,46.7,29.98,NE,40,0.0,0.0,85,0.00,OVC,,0.28,WeatherDisplay:10.37,2013-04-10 15:44:00,
2013-04-10 11:49:00,51.1,45.5,29.98,NNW,340,4.6,4.6,81,0.00,OVC,,0.28,WeatherDisplay:10.37,2013-04-10 15:49:00,
2013-04-10 11:54:00,51.3,45.6,29.98,NNW,340,4.6,4.6,81,0.00,OVC,,0.28,WeatherDisplay:10.37,2013-04-10 15:54:00,
2013-04-10 11:59:00,51.3,45.6,29.98,NNW,340,4.6,4.6,81,0.00,OVC,,0.28,WeatherDisplay:10.37,2013-04-10 15:59:00,
2013-04-10 12:04:00,51.3,45.6,29.98,NNW,340,4.6,4.6,81,0.00,OVC,,0.28,WeatherDisplay:10.37,2013-04-10 16:04:00,
2013-04-10 12:09:00,51.8,46.2,29.98,NNW,340,4.6,4.6,81,0.00,OVC,,0.28,WeatherDisplay:10.37,2013-04-10 16:09:00,
2013-04-10 12:14:00,52.2,46.5,29.98,NNW,340,4.6,4.6,81,0.00,OVC,,0.28,WeatherDisplay:10.37,2013-04-10 16:14:00,
2013-04-10 12:19:00,52.3,46.7,29.98,NNW,340,4.6,4.6,81,0.00,OVC,,0.28,WeatherDisplay:10.37,2013-04-10 16:19:00,
2013-04-10 12:24:00,52.3,46.7,29.98,NNW,340,4.6,4.6,81,0.00,OVC,,0.28,WeatherDisplay:10.37,2013-04-10 16:24:00,
2013-04-10 12:29:00,52.3,46.7,29.98,NNW,340,4.6,4.6,81,0.00,OVC,,0.28,WeatherDisplay:10.37,2013-04-10 16:29:00,
2013-04-10 12:34:00,52.3,46.7,29.98,NNW,340,0.0,0.0,81,0.00,OVC,,0.28,WeatherDisplay:10.37,2013-04-10 16:34:00,
2013-04-10 12:39:00,52.5,46.9,29.98,NNW,340,0.0,0.0,81,0.00,OVC,,0.28,WeatherDisplay:10.37,2013-04-10 16:39:00,
2013-04-10 12:44:00,52.5,46.9,29.98,NNW,340,0.0,0.0,81,0.00,OVC,,0.28,WeatherDisplay:10.37,2013-04-10 16:44:00,
2013-04-10 12:49:00,53.1,45.7,29.98,NNW,340,0.0,0.0,76,0.00,OVC,,0.28,WeatherDisplay:10.37,2013-04-10 16:49:00,
2013-04-10 12:54:00,53.4,46.0,29.98,NNW,340,0.0,0.0,76,0.00,OVC,,0.28,WeatherDisplay:10.37,2013-04-10 16:54:00,
2013-04-10 12:59:00,53.4,46.0,29.98,NNW,340,0.0,0.0,76,0.00,OVC,,0.28,WeatherDisplay:10.37,2013-04-10 16:59:00,
2013-04-10 13:04:00,53.4,45.3,29.98,NNW,340,0.0,0.0,74,0.00,OVC,,0.28,WeatherDisplay:10.37,2013-04-10 17:04:00,
2013-04-10 13:09:00,54.0,45.9,29.98,NNW,340,0.0,0.0,74,0.00,OVC,,0.28,WeatherDisplay:10.37,2013-04-10 17:09:00,
2013-04-10 13:14:00,54.1,46.0,29.98,NNW,340,0.0,0.0,74,0.00,OVC,,0.28,WeatherDisplay:10.37,2013-04-10 17:14:00,
2013-04-10 13:19:00,54.1,46.0,29.95,NNW,340,0.0,0.0,74,0.00,OVC,,0.28,WeatherDisplay:10.37,2013-04-10 17:19:00,
2013-04-10 13:24:00,54.7,46.6,29.95,NNE,15,0.0,0.0,74,0.00,OVC,,0.28,WeatherDisplay:10.37,2013-04-10 17:24:00,
2013-04-10 13:29:00,54.9,46.7,29.95,NNE,15,0.0,0.0,74,0.00,OVC,,0.28,WeatherDisplay:10.37,2013-04-10 17:29:00,
2013-04-10 13:34:00,54.9,46.7,29.95,NNE,15,0.0,0.0,74,0.00,OVC,,0.28,WeatherDisplay:10.37,2013-04-10 17:34:00,
2013-04-10 13:40:00,55.2,47.1,29.95,NNE,15,0.0,0.0,74,0.00,OVC,,0.28,WeatherDisplay:10.37,2013-04-10 17:40:00,
2013-04-10 13:45:00,55.2,47.1,29.98,NNE,15,0.0,0.0,74,0.00,OVC,,0.28,WeatherDisplay:10.37,2013-04-10 17:45:00,
2013-04-10 13:50:00,55.2,47.1,29.95,NNE,15,0.0,0.0,74,0.00,OVC,,0.28,WeatherDisplay:10.37,2013-04-10 17:50:00,
2013-04-10 13:55:00,55.2,47.1,29.95,NNE,15,0.0,0.0,74,0.00,OVC,,0.28,WeatherDisplay:10.37,2013-04-10 17:55:00,
2013-04-10 14:00:00,55.0,46.9,29.95,NNE,15,0.0,0.0,74,0.00,OVC,,0.28,WeatherDisplay:10.37,2013-04-10 18:00:00,
2013-04-10 14:05:00,55.0,46.9,29.95,NNE,15,0.0,0.0,74,0.00,OVC,OVC,0.28,WeatherDisplay:10.37,2013-04-10 18:05:00,
2013-04-10 14:10:00,55.0,46.9,29.95,NNE,15,0.0,0.0,74,0.00,OVC,OVC,0.28,WeatherDisplay:10.37,2013-04-10 18:10:00,
2013-04-10 14:15:00,55.2,47.1,29.95,NNE,15,0.0,0.0,74,0.00,OVC,OVC,0.28,WeatherDisplay:10.37,2013-04-10 18:15:00,
2013-04-10 14:20:00,55.0,49.6,29.95,NNE,20,4.6,4.6,82,0.00,-RA,,0.28,WeatherDisplay:10.37,2013-04-10 18:20:00,
2013-04-10 14:25:00,54.9,49.5,29.95,NNE,20,5.0,5.0,82,0.00,-RA,-RA,0.28,WeatherDisplay:10.37,2013-04-10 18:25:00,
2013-04-10 14:30:00,54.5,49.1,29.95,NNE,20,5.0,5.0,82,0.00,-RA,-RA,0.28,WeatherDisplay:10.37,2013-04-10 18:30:00,
2013-04-10 14:35:00,53.8,48.4,29.95,NNE,20,5.0,5.0,82,0.00,-RA,-RA,0.28,WeatherDisplay:10.37,2013-04-10 18:35:00,
2013-04-10 14:40:00,53.2,47.9,29.95,NNE,20,5.0,5.0,82,0.00,-RA,-RA,0.28,WeatherDisplay:10.37,2013-04-10 18:40:00,
2013-04-10 14:45:00,53.2,47.9,29.95,NNE,20,5.0,5.0,82,0.00,-RA,-RA,0.28,WeatherDisplay:10.37,2013-04-10 18:45:00,
2013-04-10 14:50:00,53.2,47.9,29.95,NNE,20,5.0,5.0,82,0.00,-RA,-RA,0.28,WeatherDisplay:10.37,2013-04-10 18:50:00,
2013-04-10 14:55:00,53.1,47.7,29.95,NNE,20,5.0,5.0,82,0.00,-RA,-RA,0.28,WeatherDisplay:10.37,2013-04-10 18:55:00,
2013-04-10 15:00:00,53.4,48.1,29.95,NNE,20,5.0,5.0,82,0.00,-RA,-RA,0.28,WeatherDisplay:10.37,2013-04-10 19:00:00,
2013-04-10 15:05:00,53.4,48.1,29.95,ENE,62,3.0,5.0,82,0.00,BKN,BKN,0.28,WeatherDisplay:10.37,2013-04-10 19:05:00,
2013-04-10 15:10:00,53.2,47.9,29.95,ESE,119,3.0,3.0,82,0.00,BKN,BKN,0.28,WeatherDisplay:10.37,2013-04-10 19:10:00,
2013-04-10 15:15:00,53.2,47.9,29.95,ESE,120,3.0,3.0,82,0.00,BKN,BKN,0.28,WeatherDisplay:10.37,2013-04-10 19:15:00,
2013-04-10 15:20:00,53.1,47.7,29.95,ESE,120,3.0,3.0,82,0.00,BKN,BKN,0.28,WeatherDisplay:10.37,2013-04-10 19:20:00,
2013-04-10 15:25:00,53.4,48.1,29.94,ESE,120,3.0,3.0,82,0.00,BKN,BKN,0.28,WeatherDisplay:10.37,2013-04-10 19:25:00,
2013-04-10 15:30:00,53.4,48.1,29.92,ESE,120,3.0,3.0,82,0.00,BKN,BKN,0.28,WeatherDisplay:10.37,2013-04-10 19:30:00,
2013-04-10 15:35:00,54.0,48.6,29.92,ESE,120,3.0,3.0,82,0.00,BKN,BKN,0.28,WeatherDisplay:10.37,2013-04-10 19:35:00,
2013-04-10 15:40:00,54.1,48.8,29.92,ESE,120,3.0,3.0,82,0.00,BKN,BKN,0.28,WeatherDisplay:10.37,2013-04-10 19:40:00,
2013-04-10 15:45:00,54.1,48.8,29.92,ESE,120,3.0,3.0,82,0.00,BKN,BKN,0.28,WeatherDisplay:10.37,2013-04-10 19:45:00,
2013-04-10 15:50:00,54.8,49.4,29.92,ESE,120,3.0,3.0,82,0.00,BKN,BKN,0.28,WeatherDisplay:10.37,2013-04-10 19:50:00,
2013-04-10 15:55:00,54.9,49.5,29.92,ESE,120,3.0,3.0,82,0.00,BKN,BKN,0.28,WeatherDisplay:10.37,2013-04-10 19:55:00,
2013-04-10 16:00:00,55.0,49.6,29.92,ESE,120,3.0,3.0,82,0.00,BKN,BKN,0.28,WeatherDisplay:10.37,2013-04-10 20:00:00,
2013-04-10 16:05:00,55.2,44.8,29.89,ESE,120,0.0,0.0,68,0.00,SCT,,0.28,WeatherDisplay:10.37,2013-04-10 20:05:00,
2013-04-10 16:10:00,55.4,45.0,29.89,ESE,120,0.0,0.0,68,0.00,SCT,SCT,0.28,WeatherDisplay:10.37,2013-04-10 20:10:00,
2013-04-10 16:15:00,55.4,45.0,29.89,ESE,120,0.0,0.0,68,0.00,SCT,SCT,0.28,WeatherDisplay:10.37,2013-04-10 20:15:00,
2013-04-10 16:20:00,55.4,44.6,29.89,ESE,120,0.0,0.0,67,0.00,OVC,OVC,0.28,WeatherDisplay:10.37,2013-04-10 20:20:00,
2013-04-10 16:25:00,56.1,45.3,29.89,ESE,120,0.0,0.0,67,0.00,OVC,,0.28,WeatherDisplay:10.37,2013-04-10 20:25:00,
2013-04-10 16:30:00,56.7,45.8,29.89,ESE,120,0.0,0.0,67,0.00,OVC,,0.28,WeatherDisplay:10.37,2013-04-10 20:30:00,
2013-04-10 16:35:00,56.5,45.7,29.89,ESE,120,0.0,0.0,67,0.00,OVC,,0.28,WeatherDisplay:10.37,2013-04-10 20:35:00,
2013-04-10 16:40:00,56.5,45.7,29.89,ESE,120,0.0,0.0,67,0.00,OVC,,0.28,WeatherDisplay:10.37,2013-04-10 20:40:00,
2013-04-10 16:45:00,56.7,45.8,29.89,ESE,120,0.0,0.0,67,0.00,OVC,,0.28,WeatherDisplay:10.37,2013-04-10 20:45:00,
2013-04-10 16:50:00,32.0,22.3,29.89,ESE,120,0.0,0.0,67,0.00,OVC,,0.28,WeatherDisplay:10.37,2013-04-10 20:50:00,
2013-04-10 16:55:00,56.7,45.8,29.89,ESE,120,0.0,0.0,67,0.00,OVC,,0.28,WeatherDisplay:10.37,2013-04-10 20:55:00,
2013-04-10 17:00:00,56.7,45.8,29.89,ESE,120,0.0,0.0,67,0.00,OVC,,0.28,WeatherDisplay:10.37,2013-04-10 21:00:00,
2013-04-10 17:05:00,56.5,47.2,29.89,East,80,3.5,3.5,71,0.00,OVC,,0.28,WeatherDisplay:10.37,2013-04-10 21:05:00,
2013-04-10 17:10:00,32.0,23.7,29.89,East,80,3.5,3.5,71,0.00,OVC,,0.28,WeatherDisplay:10.37,2013-04-10 21:10:00,
2013-04-10 17:15:00,32.0,23.7,29.89,East,80,3.5,3.5,71,0.00,OVC,,0.28,WeatherDisplay:10.37,2013-04-10 21:15:00,
2013-04-10 17:20:00,56.3,47.0,29.86,East,80,3.5,3.5,71,0.00,OVC,,0.28,WeatherDisplay:10.37,2013-04-10 21:20:00,
2013-04-10 17:25:00,32.0,23.7,29.86,East,80,3.5,3.5,71,0.00,OVC,,0.28,WeatherDisplay:10.37,2013-04-10 21:25:00,
2013-04-10 17:33:00,53.8,44.6,29.83,East,80,3.5,3.5,71,0.00,OVC,,0.28,WeatherDisplay:10.37,2013-04-10 21:33:00,
2013-04-10 17:38:00,53.6,44.4,29.83,East,80,3.5,3.5,71,0.00,OVC,,0.28,WeatherDisplay:10.37,2013-04-10 21:38:00,
2013-04-10 17:43:00,53.6,44.4,29.83,East,80,3.5,3.5,71,0.00,OVC,,0.28,WeatherDisplay:10.37,2013-04-10 21:43:00,
2013-04-10 17:48:00,53.6,44.4,29.83,East,80,3.5,3.5,71,0.00,OVC,,0.28,WeatherDisplay:10.37,2013-04-10 21:48:00,
2013-04-10 17:54:00,53.4,44.2,29.83,East,80,3.5,3.5,71,0.00,OVC,,0.28,WeatherDisplay:10.37,2013-04-10 21:54:00,
2013-04-10 17:59:00,53.4,44.2,29.83,East,80,3.5,3.5,71,0.00,OVC,,0.28,WeatherDisplay:10.37,2013-04-10 21:59:00,
2013-04-10 18:04:00,53.2,47.9,29.83,North,10,5.8,5.8,82,0.00,-RA,,0.28,WeatherDisplay:10.37,2013-04-10 22:04:00,
2013-04-10 18:09:00,52.9,47.5,29.83,North,10,5.8,5.8,82,0.00,-RA,,0.28,WeatherDisplay:10.37,2013-04-10 22:09:00,
2013-04-10 18:14:00,52.7,47.4,29.83,North,10,5.8,5.8,82,0.04,-RA,,0.31,WeatherDisplay:10.37,2013-04-10 22:14:00,
2013-04-10 18:19:00,52.5,48.8,29.83,NNW,340,13.8,13.8,87,0.04,RA,,0.31,WeatherDisplay:10.37,2013-04-10 22:19:00,
2013-04-10 18:24:00,52.2,48.4,29.83,NNW,340,13.8,13.8,87,0.04,OVC,,0.31,WeatherDisplay:10.37,2013-04-10 22:24:00,
2013-04-10 18:29:00,52.2,48.4,29.86,NNW,340,13.8,13.8,87,0.04,OVC,,0.31,WeatherDisplay:10.37,2013-04-10 22:29:00,
2013-04-10 18:34:00,52.0,48.2,29.86,NNW,340,13.8,13.8,87,0.04,OVC,,0.31,WeatherDisplay:10.37,2013-04-10 22:34:00,
2013-04-10 18:39:00,52.0,48.2,29.86,NNW,340,13.8,13.8,87,0.08,RA,,0.35,WeatherDisplay:10.37,2013-04-10 22:39:00,
2013-04-10 18:44:00,52.2,48.4,29.89,NNW,340,13.8,13.8,87,0.08,RA,,0.35,WeatherDisplay:10.37,2013-04-10 22:44:00,
2013-04-10 18:49:00,52.2,48.4,29.89,North,10,8.1,8.1,87,0.08,OVC,,0.35,WeatherDisplay:10.37,2013-04-10 22:49:00,
2013-04-10 18:54:00,52.2,48.4,29.89,North,10,8.1,8.1,87,0.08,OVC,,0.35,WeatherDisplay:10.37,2013-04-10 22:54:00,
2013-04-10 18:59:00,52.2,48.4,29.89,North,10,8.1,8.1,87,0.08,OVC,,0.35,WeatherDisplay:10.37,2013-04-10 22:59:00,
2013-04-10 19:04:00,52.2,48.4,29.89,North,10,8.1,8.1,87,0.08,OVC,,0.35,WeatherDisplay:10.37,2013-04-10 23:04:00,
2013-04-10 19:09:00,52.2,48.4,29.89,North,10,8.1,8.1,87,0.08,OVC,,0.35,WeatherDisplay:10.37,2013-04-10 23:09:00,
2013-04-10 19:14:00,52.0,48.2,29.83,North,10,8.1,8.1,87,0.08,RA,,0.39,WeatherDisplay:10.37,2013-04-10 23:14:00,
2013-04-10 19:19:00,52.0,48.2,29.83,NNE,30,4.6,4.6,87,0.08,-RA,,0.39,WeatherDisplay:10.37,2013-04-10 23:19:00,
2013-04-10 19:24:00,51.8,48.1,29.83,NNE,30,4.6,4.6,87,0.08,-RA,,0.39,WeatherDisplay:10.37,2013-04-10 23:24:00,
2013-04-10 19:29:00,51.8,48.1,29.86,NNE,30,4.6,4.6,87,0.08,-RA,,0.39,WeatherDisplay:10.37,2013-04-10 23:29:00,
2013-04-10 19:34:00,51.8,48.1,29.86,NNE,30,4.6,4.6,87,0.08,-RA,,0.39,WeatherDisplay:10.37,2013-04-10 23:34:00,
2013-04-10 19:39:00,51.8,48.1,29.86,NNE,30,4.6,4.6,87,0.04,-RA,,0.39,WeatherDisplay:10.37,2013-04-10 23:39:00,
2013-04-10 19:44:00,51.8,48.1,29.86,NNE,30,4.6,4.6,87,0.04,-RA,,0.39,WeatherDisplay:10.37,2013-04-10 23:44:00,
2013-04-10 19:49:00,51.6,47.9,29.86,NNE,30,4.6,4.6,87,0.04,-RA,,0.39,WeatherDisplay:10.37,2013-04-10 23:49:00,
2013-04-10 19:54:00,51.6,47.9,29.86,NNE,30,4.6,4.6,87,0.04,-RA,,0.39,WeatherDisplay:10.37,2013-04-10 23:54:00,
2013-04-10 19:59:00,51.6,47.9,29.86,NNE,30,4.6,4.6,87,0.04,-RA,,0.39,WeatherDisplay:10.37,2013-04-10 23:59:00,
2013-04-10 20:04:00,51.6,50.5,29.86,NNW,340,5.8,5.8,96,0.08,-RA,,0.43,WeatherDisplay:10.37,2013-04-11 00:04:00,
2013-04-10 20:09:00,51.6,50.5,29.86,NNW,340,5.8,5.8,96,0.08,-RA,,0.43,WeatherDisplay:10.37,2013-04-11 00:09:00,
2013-04-10 20:14:00,51.4,50.3,29.83,NNW,340,5.8,5.8,96,0.04,-RA,,0.43,WeatherDisplay:10.37,2013-04-11 00:14:00,
2013-04-10 20:19:00,51.4,49.5,29.83,NNW,340,5.8,5.8,93,0.04,-RA,,0.43,WeatherDisplay:10.37,2013-04-11 00:19:00,
2013-04-10 20:24:00,51.4,49.5,29.83,NNW,340,5.8,5.8,93,0.04,-RA,,0.43,WeatherDisplay:10.37,2013-04-11 00:24:00,
2013-04-10 20:29:00,51.3,49.3,29.83,NNW,340,5.8,5.8,93,0.04,-RA,,0.43,WeatherDisplay:10.37,2013-04-11 00:29:00,
2013-04-10 20:34:00,50.9,48.9,29.83,NNW,340,5.8,5.8,93,0.04,-RA,,0.43,WeatherDisplay:10.37,2013-04-11 00:34:00,
2013-04-10 20:39:00,50.7,48.8,29.83,NNW,340,5.8,5.8,93,0.04,-RA,,0.43,WeatherDisplay:10.37,2013-04-11 00:39:00,
2013-04-10 20:44:00,50.5,48.6,29.83,NNW,340,5.8,5.8,93,0.04,-RA,,0.43,WeatherDisplay:10.37,2013-04-11 00:44:00,
2013-04-10 20:49:00,50.5,48.6,29.83,NNW,340,5.8,5.8,93,0.04,-RA,,0.43,WeatherDisplay:10.37,2013-04-11 00:49:00,
2013-04-10 20:54:00,50.4,48.4,29.83,NNW,340,5.8,5.8,93,0.04,-RA,,0.43,WeatherDisplay:10.37,2013-04-11 00:54:00,
2013-04-10 20:59:00,50.2,48.2,29.83,NNW,340,5.8,5.8,93,0.04,-RA,,0.43,WeatherDisplay:10.37,2013-04-11 00:59:00,
2013-04-10 21:04:00,50.2,47.9,29.83,NNW,340,5.8,5.8,92,0.00,SCT,,0.43,WeatherDisplay:10.37,2013-04-11 01:04:00,
2013-04-10 21:09:00,50.0,47.8,29.83,NNW,340,5.8,5.8,92,0.00,SCT,,0.43,WeatherDisplay:10.37,2013-04-11 01:09:00,
2013-04-10 21:14:00,50.0,47.8,29.83,NNW,340,5.8,5.8,92,0.00,SCT,,0.43,WeatherDisplay:10.37,2013-04-11 01:14:00,
2013-04-10 21:19:00,50.0,48.1,29.83,NNE,30,9.2,9.2,93,0.00,-RA,,0.43,WeatherDisplay:10.37,2013-04-11 01:19:00,
2013-04-10 21:24:00,49.8,47.9,29.83,NNE,30,9.2,9.2,93,0.00,-RA,,0.43,WeatherDisplay:10.37,2013-04-11 01:24:00,
2013-04-10 21:29:00,49.8,47.9,29.86,NNE,30,9.2,9.2,93,0.00,-RA,,0.43,WeatherDisplay:10.37,2013-04-11 01:29:00,
2013-04-10 21:34:00,49.6,47.7,29.86,NNE,30,9.2,9.2,93,0.00,-RA,,0.43,WeatherDisplay:10.37,2013-04-11 01:34:00,
2013-04-10 21:39:00,49.5,47.5,29.86,NNE,30,9.2,9.2,93,0.00,-RA,,0.43,WeatherDisplay:10.37,2013-04-11 01:39:00,
2013-04-10 21:44:00,49.3,47.3,29.86,NNE,30,9.2,9.2,93,0.00,-RA,,0.43,WeatherDisplay:10.37,2013-04-11 01:44:00,
2013-04-10 21:49:00,48.9,45.2,29.86,NNE,30,9.2,9.2,87,0.00,OVC,,0.43,WeatherDisplay:10.37,2013-04-11 01:49:00,
2013-04-10 21:54:00,48.7,45.0,29.86,NNE,30,9.2,9.2,87,0.00,OVC,,0.43,WeatherDisplay:10.37,2013-04-11 01:54:00,
2013-04-10 21:59:00,48.6,44.9,29.86,NNE,30,9.2,9.2,87,0.00,OVC,,0.43,WeatherDisplay:10.37,2013-04-11 01:59:00,
2013-04-10 22:04:00,48.4,44.7,29.86,NNE,30,9.2,9.2,87,0.00,OVC,,0.43,WeatherDisplay:10.37,2013-04-11 02:04:00,
2013-04-10 22:09:00,48.2,44.5,29.86,NNE,30,9.2,9.2,87,0.00,OVC,,0.43,WeatherDisplay:10.37,2013-04-11 02:09:00,
2013-04-10 22:14:00,47.8,44.2,29.83,NNE,30,9.2,9.2,87,0.00,OVC,,0.43,WeatherDisplay:10.37,2013-04-11 02:14:00,
2013-04-10 22:19:00,47.7,44.6,29.83,NNE,20,8.1,8.1,89,0.00,OVC,,0.43,WeatherDisplay:10.37,2013-04-11 02:19:00,
2013-04-10 22:24:00,47.5,44.4,29.83,NNE,20,8.1,8.1,89,0.00,OVC,,0.43,WeatherDisplay:10.37,2013-04-11 02:24:00,
2013-04-10 22:29:00,47.3,44.2,29.89,NNE,20,8.1,8.1,89,0.00,OVC,,0.43,WeatherDisplay:10.37,2013-04-11 02:29:00,
2013-04-10 22:34:00,47.1,43.4,29.89,North,10,6.9,6.9,87,0.00,-RA,,0.43,WeatherDisplay:10.37,2013-04-11 02:34:00,
2013-04-10 22:39:00,46.9,43.3,29.89,North,10,6.9,6.9,87,0.00,-RA,,0.43,WeatherDisplay:10.37,2013-04-11 02:39:00,
2013-04-10 22:44:00,46.9,43.3,29.89,North,10,6.9,6.9,87,0.00,-RA,,0.43,WeatherDisplay:10.37,2013-04-11 02:44:00,
2013-04-10 22:49:00,46.9,43.3,29.89,North,350,6.9,6.9,87,0.00,-RA,,0.43,WeatherDisplay:10.37,2013-04-11 02:49:00,
2013-04-10 22:54:00,46.9,43.3,29.89,North,350,6.9,6.9,87,0.00,-RA,,0.43,WeatherDisplay:10.37,2013-04-11 02:54:00,
2013-04-10 22:59:00,46.9,43.3,29.89,North,350,6.9,6.9,87,0.00,-RA,,0.43,WeatherDisplay:10.37,2013-04-11 02:59:00,
2013-04-10 23:04:00,46.9,43.3,29.89,North,350,6.9,6.9,87,0.00,-RA,,0.43,WeatherDisplay:10.37,2013-04-11 03:04:00,
2013-04-10 23:09:00,46.9,43.3,29.89,North,350,6.9,6.9,87,0.00,-RA,,0.43,WeatherDisplay:10.37,2013-04-11 03:09:00,
2013-04-10 23:14:00,46.9,43.3,29.89,North,350,6.9,6.9,87,0.00,-RA,,0.43,WeatherDisplay:10.37,2013-04-11 03:14:00,
2013-04-10 23:19:00,46.9,44.7,29.89,North,350,9.2,9.2,92,0.00,OVC,,0.43,WeatherDisplay:10.37,2013-04-11 03:19:00,
2013-04-10 23:24:00,46.9,44.7,29.89,North,350,9.2,9.2,92,0.00,OVC,,0.43,WeatherDisplay:10.37,2013-04-11 03:24:00,
2013-04-10 23:29:00,46.8,44.6,29.89,North,350,9.2,9.2,92,0.00,OVC,,0.43,WeatherDisplay:10.37,2013-04-11 03:29:00,
2013-04-10 23:34:00,46.8,44.8,29.89,North,360,9.2,9.2,93,0.00,-DZ,,0.43,WeatherDisplay:10.37,2013-04-11 03:34:00,
2013-04-10 23:39:00,46.8,44.8,29.89,North,360,9.2,9.2,93,0.00,-DZ,,0.43,WeatherDisplay:10.37,2013-04-11 03:39:00,
2013-04-10 23:44:00,46.6,44.7,29.89,North,360,9.2,9.2,93,0.00,-DZ,,0.43,WeatherDisplay:10.37,2013-04-11 03:44:00,
2013-04-10 23:49:00,46.6,44.7,29.89,North,360,9.2,9.2,93,0.00,-DZ,,0.43,WeatherDisplay:10.37,2013-04-11 03:49:00,
2013-04-10 23:54:00,46.6,44.7,29.89,North,360,9.2,9.2,93,0.00,-DZ,,0.43,WeatherDisplay:10.37,2013-04-11 03:54:00,
2013-04-10 23:59:00,46.6,44.7,29.89,North,360,9.2,9.2,93,0.00,-DZ,,0.43,WeatherDisplay:10.37,2013-04-11 03:59:00,